FW5711 Weather Reports


time (UTC)temp
F
wind
direction
speed
knots
gust
knots
rain 1hr
in
rain 24hr
in
rain mn
in
humidity
%
barometer
mb
20260504173046 54 309 8.7 13.9 0.00 0.00 0.00 37 1015.4
20260504171538 54 293 7.8 20.0 0.00 0.00 0.00 37 1015.4
20260504081541 50 16 11.3 17.4 0.00 0.00 0.00 50 1015.1
20260504044541 58 5 7.0 10.4 0.00 0.00 0.00 35 1009.7
20260504043039 58 19 7.0 12.2 0.00 0.00 0.00 34 1009.2
20260504041539 59 5 6.1 9.6 0.00 0.00 0.00 33 1008.9
20260504040039 60 5 8.7 14.8 0.00 0.00 0.00 32 1008.5
20260504034544 60 5 9.6 13.0 0.00 0.00 0.00 32 1008.1
20260504033050 60 9 7.8 12.2 0.00 0.00 0.00 31 1007.9
20260504031535 60 360 5.2 7.8 0.00 0.00 0.00 28 1007.4
20260504030041 62 5 7.0 10.4 0.00 0.00 0.00 25 1007.2
20260504024544 63 24 2.6 4.3 0.00 0.00 0.00 22 1007.0
20260504023037 64 10 2.6 4.3 0.00 0.00 0.00 22 1006.9
20260504021538 66 9 3.5 7.0 0.00 0.00 0.00 21 1006.9
20260504020037 68 360 5.2 11.3 0.00 0.00 0.00 19 1007.2
20260504014539 71 352 7.8 11.3 0.00 0.00 0.00 18 1007.1
20260504013038 72 18 8.7 13.9 0.00 0.00 0.00 17 1007.2
20260504011538 73 15 9.6 14.8 0.00 0.00 0.00 17 1007.2
20260504010048 74 5 7.0 12.2 0.00 0.00 0.00 17 1007.3
20260504004537 74 340 8.7 13.9 0.00 0.00 0.00 16 1007.2
20260504003037 75 17 7.0 13.9 0.00 0.00 0.00 15 1007.4
20260504001550 76 323 7.0 11.3 0.00 0.00 0.00 15 1007.6
20260504000040 76 294 7.0 12.2 0.00 0.00 0.00 15 1007.7
20260503234539 76 317 5.2 11.3 0.00 0.00 0.00 15 1007.7
20260503233037 76 269 7.0 13.0 0.00 0.00 0.00 15 1007.8
20260503231537 77 294 6.1 12.2 0.00 0.00 0.00 14 1008.0
20260503230037 76 279 4.3 14.8 0.00 0.00 0.00 16 1008.0
20260503224537 76 265 4.3 13.9 0.00 0.00 0.00 15 1008.2
20260503223039 76 300 6.1 10.4 0.00 0.00 0.00 16 1008.3
20260503221543 75 300 7.8 16.5 0.00 0.00 0.00 15 1008.7
20260503220049 76 307 5.2 11.3 0.00 0.00 0.00 15 1008.8
20260503214537 76 309 6.1 13.9 0.00 0.00 0.00 14 1009.0
20260503213040 75 306 6.1 12.2 0.00 0.00 0.00 16 1009.2
20260503211550 75 246 5.2 13.0 0.00 0.00 0.00 16 1009.5
20260503210041 74 295 6.1 14.8 0.00 0.00 0.00 15 1009.6
20260503204540 74 315 7.8 13.9 0.00 0.00 0.00 14 1010.1
20260503203038 74 348 6.1 13.9 0.00 0.00 0.00 17 1010.1
20260503201539 74 302 5.2 13.0 0.00 0.00 0.00 16 1010.3
20260503200037 73 317 7.8 13.9 0.00 0.00 0.00 15 1010.3
20260503194537 74 241 8.7 13.9 0.00 0.00 0.00 16 1010.5
20260503193042 73 303 7.0 14.8 0.00 0.00 0.00 17 1010.7
20260503191540 73 263 9.6 15.6 0.00 0.00 0.00 18 1010.9
20260503190039 74 219 7.0 13.9 0.00 0.00 0.00 19 1011.2
20260503184537 74 255 8.7 16.5 0.00 0.00 0.00 18 1011.3
20260503183041 73 257 5.2 12.2 0.00 0.00 0.00 20 1011.4
20260503181612 73 244 7.8 15.6 0.00 0.00 0.00 21 1011.9
20260503180041 71 240 7.0 13.0 0.00 0.00 0.00 22 1012.1
20260503174537 70 236 5.2 11.3 0.00 0.00 0.00 25 1012.3